This is the latest recevied weather packets stored in our database for station/object N3WXO-1. If no packets are shown the sender has not sent any weather packets the latest 10 day(s).
| Time | Temp. | Humidity | Pressure | Rain* | Wind** | Luminosity | Snow |
|---|---|---|---|---|---|---|---|
| 1777848028 | 15.56° C | 39% | 1011.4 hPa | 0 mm | - | 79 W/m² | - |
| 1777847723 | 15.56° C | 38% | 1011.3 hPa | 0 mm | - | 83 W/m² | - |
| 1777847424 | 16.11° C | 39% | 1011.3 hPa | 0 mm | - | 32 W/m² | - |
| 1777847120 | 16.11° C | 36% | 1011.4 hPa | 0 mm | - | 72 W/m² | - |
| 1777846835 | 16.11° C | 39% | 1011.4 hPa | 0 mm | - | 123 W/m² | - |
| 1777846532 | 15.56° C | 37% | 1011.3 hPa | 0 mm | - | 148 W/m² | - |
| 1777846228 | 15° C | 42% | 1011.4 hPa | 0 mm | - | 200 W/m² | - |
| 1777845922 | 15° C | 37% | 1011.5 hPa | 0 mm | - | 53 W/m² | - |
| 1777845617 | 15.56° C | 37% | 1011.4 hPa | 0 mm | - | 39 W/m² | - |
| 1777845333 | 15.56° C | 40% | 1011.3 hPa | 0 mm | - | 37 W/m² | - |
| 1777845032 | 15.56° C | 37% | 1011.4 hPa | 0 mm | - | 51 W/m² | - |
| 1777844728 | 15.56° C | 39% | 1011.3 hPa | 0 mm | - | 79 W/m² | - |
| 1777844423 | 15.56° C | 36% | 1011.4 hPa | 0 mm | - | 144 W/m² | - |
| 1777844117 | 16.11° C | 36% | 1011.3 hPa | 0 mm | - | 257 W/m² | - |
| 1777843833 | 16.11° C | 39% | 1011.2 hPa | 0 mm | - | 341 W/m² | - |
| 1777843527 | 16.11° C | 36% | 1011.2 hPa | 0 mm | - | 107 W/m² | - |
| 1777843223 | 16.11° C | 37% | 1011.2 hPa | 0 mm | - | 308 W/m² | - |
| 1777842923 | 16.11° C | 35% | 1011.2 hPa | 0 mm | - | 448 W/m² | - |
| 1777842617 | 16.11° C | 35% | 1011.2 hPa | 0 mm | - | 476 W/m² | - |
| 1777842334 | 16.11° C | 37% | 1011.3 hPa | 0 mm | - | 439 W/m² | - |
| 1777842028 | 15.56° C | 35% | 1011.1 hPa | 0 mm | - | 348 W/m² | - |
| 1777841723 | 15.56° C | 35% | 1011.2 hPa | 0 mm | - | 95 W/m² | - |
| 1777841418 | 16.11° C | 35% | 1011.1 hPa | 0 mm | - | 83 W/m² | - |
| 1777841133 | 16.11° C | 35% | 1011.1 hPa | 0 mm | - | 432 W/m² | - |
| 1777840833 | 16.11° C | 37% | 1011.3 hPa | 0 mm | - | 297 W/m² | - |
* Rain latest hour (hover to see other rain measurements)
** Current wind speed in m/s (hover to see current wind gust speed)